This is the latest recevied weather packets stored in our database for station/object K4AMF. If no packets are shown the sender has not sent any weather packets the latest 10 day(s).
| Time | Temp. | Humidity | Pressure | Rain* | Wind** | Luminosity | Snow |
|---|---|---|---|---|---|---|---|
| 1777819903 | 18.89° C | 78% | 1021 hPa | 0 mm | - | 413 W/m² | - |
| 1777818085 | 18.89° C | 80% | 1020.7 hPa | 0 mm | - | 635 W/m² | - |
| 1777817175 | 17.78° C | 82% | 1020.6 hPa | 0 mm | - | 689 W/m² | - |
| 1777816570 | 17.22° C | 83% | 1020.6 hPa | 0 mm | - | 671 W/m² | - |
| 1777815964 | 16.67° C | 84% | 1020.4 hPa | 0 mm | - | 604 W/m² | - |
| 1777815358 | 16.67° C | 85% | 1020.3 hPa | 0 mm | - | 565 W/m² | - |
| 1777815055 | 16.11° C | 86% | 1020.2 hPa | 0 mm | - | 548 W/m² | - |
| 1777814146 | 15.56° C | 88% | 1020.3 hPa | 0 mm | - | 405 W/m² | - |
| 1777813238 | 15° C | 91% | 1020.1 hPa | 0 mm | - | 219 W/m² | - |
| 1777811726 | 14.44° C | 96% | 1020 hPa | 0 mm | - | 75 W/m² | - |
| 1777810815 | 13.89° C | 98% | 1019.9 hPa | 0 mm | - | 62 W/m² | - |
| 1777809905 | 13.89° C | 99% | 1019.6 hPa | 0 mm | - | 46 W/m² | - |
| 1777808998 | 13.33° C | 99% | 1019.7 hPa | 0 mm | - | 46 W/m² | - |
| 1777804460 | 13.33° C | 99% | 1018.7 hPa | 0 mm | - | 0 W/m² | - |
| 1777803854 | 13.33° C | 99% | 1018.6 hPa | 0 mm | - | 0 W/m² | - |
| 1777803549 | 13.33° C | 99% | 1018.6 hPa | 0 mm | - | 0 W/m² | - |
| 1777802943 | 13.33° C | 99% | 1018.5 hPa | 0 mm | - | 0 W/m² | - |
| 1777802642 | 13.33° C | 99% | 1018.3 hPa | 0 mm | - | 0 W/m² | - |
| 1777802339 | 13.33° C | 99% | 1018.5 hPa | 0 mm | - | 0 W/m² | - |
| 1777801128 | 13.89° C | 99% | 1018.4 hPa | 0 mm | - | 0 W/m² | - |
| 1777800826 | 13.89° C | 99% | 1018.1 hPa | 0 mm | - | 0 W/m² | - |
| 1777800525 | 13.89° C | 99% | 1018.1 hPa | 0 mm | - | 0 W/m² | - |
| 1777800222 | 13.89° C | 99% | 1018.2 hPa | 0 mm | - | 0 W/m² | - |
| 1777799917 | 13.89° C | 99% | 1017.9 hPa | 0 mm | - | 0 W/m² | - |
| 1777799615 | 13.89° C | 99% | 1018.3 hPa | 0 mm | - | 0 W/m² | - |
* Rain latest hour (hover to see other rain measurements)
** Current wind speed in m/s (hover to see current wind gust speed)